TimeCST,TemperatureF,Dew PointF,Humidity,Sea Level PressureIn,VisibilityMPH,Wind Direction,Wind SpeedMPH,Gust SpeedMPH,PrecipitationIn,Events,Conditions,WindDirDegrees,DateUTC
12:15 AM,31.1,28.8,91,30.14,10.0,SSW,4.6,-,N/A,,Clear,200,2012-12-14 06:15:00
12:35 AM,30.0,28.0,92,30.14,10.0,SSW,3.5,-,N/A,,Clear,200,2012-12-14 06:35:00
12:55 AM,30.4,28.4,92,30.14,10.0,Calm,Calm,-,N/A,,Clear,0,2012-12-14 06:55:00
1:15 AM,29.3,27.7,94,30.14,10.0,Calm,Calm,-,N/A,,Clear,0,2012-12-14 07:15:00
1:35 AM,30.2,28.2,92,30.15,10.0,SSE,3.5,-,N/A,,Clear,150,2012-12-14 07:35:00
1:55 AM,28.4,26.2,92,30.16,10.0,SSE,3.5,-,N/A,,Clear,160,2012-12-14 07:55:00
2:15 AM,26.8,25.5,95,30.16,10.0,South,4.6,-,N/A,,Clear,170,2012-12-14 08:15:00
2:35 AM,25.7,24.3,94,30.16,10.0,SSE,3.5,-,N/A,,Clear,160,2012-12-14 08:35:00
2:55 AM,25.7,24.6,96,30.16,10.0,SSE,4.6,-,N/A,,Clear,160,2012-12-14 08:55:00
3:15 AM,25.7,24.6,96,30.16,10.0,SSE,4.6,-,N/A,,Clear,160,2012-12-14 09:15:00
3:35 AM,25.2,23.7,94,30.16,10.0,SSE,4.6,-,N/A,,Clear,160,2012-12-14 09:35:00
3:55 AM,25.5,24.1,94,30.15,10.0,SSE,4.6,-,N/A,,Clear,160,2012-12-14 09:55:00
4:15 AM,25.0,23.9,96,30.16,10.0,SSE,3.5,-,N/A,,Clear,160,2012-12-14 10:15:00
4:35 AM,25.7,23.9,93,30.15,10.0,SE,3.5,-,N/A,,Clear,130,2012-12-14 10:35:00
5:15 AM,25.0,23.5,94,30.14,10.0,SE,3.5,-,N/A,,Clear,130,2012-12-14 11:15:00
5:35 AM,24.4,23.0,94,30.14,10.0,SE,4.6,-,N/A,,Clear,140,2012-12-14 11:35:00
5:55 AM,23.9,22.3,94,30.14,10.0,ESE,3.5,-,N/A,,Clear,120,2012-12-14 11:55:00
6:15 AM,23.7,22.3,94,30.15,10.0,SSE,6.9,-,N/A,,Clear,160,2012-12-14 12:15:00
6:35 AM,24.8,23.2,94,30.16,10.0,SE,3.5,-,N/A,,Clear,140,2012-12-14 12:35:00
6:55 AM,24.6,22.8,93,30.16,10.0,SE,3.5,-,N/A,,Clear,140,2012-12-14 12:55:00
7:15 AM,25.3,23.4,92,30.16,10.0,SE,5.8,-,N/A,,Clear,140,2012-12-14 13:15:00
7:35 AM,24.8,23.5,95,30.16,10.0,SE,5.8,-,N/A,,Clear,140,2012-12-14 13:35:00
7:55 AM,25.5,23.7,93,30.16,10.0,ESE,3.5,-,N/A,,Clear,120,2012-12-14 13:55:00
8:15 AM,28.9,26.6,91,30.17,10.0,Calm,Calm,-,N/A,,Clear,0,2012-12-14 14:15:00
8:35 AM,31.1,27.7,87,30.17,10.0,Calm,Calm,-,N/A,,Clear,0,2012-12-14 14:35:00
8:55 AM,32.0,29.3,90,30.18,10.0,Calm,Calm,-,N/A,,Clear,0,2012-12-14 14:55:00
9:15 AM,34.3,30.6,86,30.17,10.0,SE,3.5,-,N/A,,Clear,140,2012-12-14 15:15:00
9:35 AM,36.1,30.6,80,30.18,10.0,SE,4.6,-,N/A,,Clear,140,2012-12-14 15:35:00
9:55 AM,37.6,30.6,76,30.17,10.0,SE,4.6,-,N/A,,Clear,140,2012-12-14 15:55:00
10:15 AM,39.4,30.7,71,30.17,10.0,SSE,4.6,-,N/A,,Clear,150,2012-12-14 16:15:00
10:35 AM,41.0,30.0,65,30.17,10.0,SSE,5.8,-,N/A,,Clear,160,2012-12-14 16:35:00
10:55 AM,41.9,31.6,67,30.15,10.0,SSE,4.6,-,N/A,,Clear,150,2012-12-14 16:55:00
11:15 AM,43.5,31.6,63,30.14,10.0,SSE,5.8,-,N/A,,Clear,150,2012-12-14 17:15:00
11:35 AM,44.8,32.0,61,30.13,10.0,SSE,6.9,-,N/A,,Clear,160,2012-12-14 17:35:00
12:15 PM,45.3,31.8,59,30.12,10.0,SSE,9.2,-,N/A,,Clear,160,2012-12-14 18:15:00
12:35 PM,45.1,32.0,60,30.11,10.0,SSE,8.1,-,N/A,,Clear,160,2012-12-14 18:35:00
12:55 PM,45.5,32.5,61,30.10,10.0,SSE,9.2,-,N/A,,Clear,150,2012-12-14 18:55:00
1:15 PM,46.4,32.7,59,30.10,10.0,SSE,9.2,-,N/A,,Clear,150,2012-12-14 19:15:00
1:35 PM,46.4,32.7,59,30.09,10.0,SE,9.2,-,N/A,,Clear,140,2012-12-14 19:35:00
1:55 PM,46.6,33.1,59,30.09,10.0,SSE,6.9,-,N/A,,Clear,150,2012-12-14 19:55:00
2:15 PM,46.4,32.7,59,30.08,10.0,SSE,9.2,-,N/A,,Clear,150,2012-12-14 20:15:00
2:35 PM,46.6,33.3,60,30.09,10.0,SSE,10.4,-,N/A,,Clear,150,2012-12-14 20:35:00
2:55 PM,46.0,33.3,61,30.08,10.0,SE,9.2,-,N/A,,Clear,140,2012-12-14 20:55:00
3:15 PM,45.1,33.1,63,30.07,10.0,SE,8.1,-,N/A,,Clear,140,2012-12-14 21:15:00
3:35 PM,43.7,34.0,69,30.07,10.0,SE,8.1,-,N/A,,Clear,140,2012-12-14 21:35:00
3:55 PM,41.5,34.2,75,30.07,10.0,SE,6.9,-,N/A,,Clear,130,2012-12-14 21:55:00
4:15 PM,40.1,33.8,78,30.08,10.0,SE,6.9,-,N/A,,Clear,130,2012-12-14 22:15:00
4:35 PM,37.8,32.9,83,30.07,10.0,SE,6.9,-,N/A,,Clear,130,2012-12-14 22:35:00
4:55 PM,35.8,32.0,86,30.07,10.0,SE,6.9,-,N/A,,Clear,130,2012-12-14 22:55:00
5:15 PM,36.5,32.0,84,30.07,10.0,SE,8.1,-,N/A,,Clear,140,2012-12-14 23:15:00
5:35 PM,36.5,32.0,84,30.07,10.0,SE,8.1,-,N/A,,Clear,140,2012-12-14 23:35:00
5:55 PM,36.7,32.2,84,30.07,10.0,SSE,8.1,-,N/A,,Clear,150,2012-12-14 23:55:00
6:15 PM,38.3,33.1,81,30.07,10.0,SSE,10.4,-,N/A,,Clear,150,2012-12-15 00:15:00
6:35 PM,38.5,33.8,83,30.06,10.0,SSE,11.5,-,N/A,,Clear,150,2012-12-15 00:35:00
6:55 PM,39.6,34.2,81,30.06,10.0,SE,10.4,-,N/A,,Clear,140,2012-12-15 00:55:00
7:15 PM,39.9,34.7,82,30.06,10.0,SE,11.5,-,N/A,,Clear,140,2012-12-15 01:15:00
7:55 PM,40.3,34.9,81,30.06,10.0,SSE,11.5,-,N/A,,Clear,150,2012-12-15 01:55:00
8:15 PM,40.5,35.1,81,30.06,10.0,SE,11.5,-,N/A,,Clear,140,2012-12-15 02:15:00
8:35 PM,41.0,35.6,81,30.04,10.0,SE,11.5,-,N/A,,Clear,140,2012-12-15 02:35:00
8:55 PM,40.3,35.6,83,30.04,10.0,SE,11.5,-,N/A,,Clear,140,2012-12-15 02:55:00
9:15 PM,41.4,35.6,80,30.03,10.0,SE,11.5,-,N/A,,Mostly Cloudy,140,2012-12-15 03:15:00
9:35 PM,41.5,35.8,80,30.03,10.0,SE,12.7,-,N/A,,Overcast,140,2012-12-15 03:35:00
9:55 PM,41.4,35.8,81,30.03,10.0,SSE,11.5,-,N/A,,Overcast,150,2012-12-15 03:55:00
10:15 PM,41.7,35.6,79,30.01,10.0,SE,12.7,-,N/A,,Overcast,140,2012-12-15 04:15:00
10:35 PM,41.9,35.6,78,30.01,10.0,SSE,10.4,-,N/A,,Overcast,150,2012-12-15 04:35:00
10:55 PM,41.9,35.2,77,29.99,10.0,SSE,12.7,-,N/A,,Overcast,150,2012-12-15 04:55:00
11:15 PM,41.9,35.1,77,29.99,10.0,SE,10.4,-,N/A,,Overcast,140,2012-12-15 05:15:00
11:35 PM,41.9,34.9,76,29.99,10.0,SSE,12.7,-,N/A,,Overcast,150,2012-12-15 05:35:00
11:55 PM,41.4,34.7,77,29.98,10.0,SE,13.8,-,N/A,,Overcast,140,2012-12-15 05:55:00